Погода Новоанненский

Погода Новоанненский : погода сейчас, прогноз погоды и архив. Всё, что Вы хотите узнать о погоде Новоанненский!

Поиск расширенной информации на нашем сайте:

Другие новости

Новости СМИ2

Главная страница сайта

Новости сайта

03.07.2017

Напоминаем, что на нашем специализированном сайте Метеоцентр.Азия вы можете получить высокодетализированные автоматические прогнозы погоды по пунктам России, СНГ и мира в авиационном формате (включающие направление и скорость ветра, видимость, явления погоды, количество и форму облачности, нижнюю и верхнюю границу облачности).


Погода Новоанненский - сегодня

Время (UTC), дата Ветер
(°,м/с) 
Видим.   Явления Облачность Т
(°С)
Тd
(°С)
f(%) Тe
(°С)
Pmin
(гПа)
dP
(гПа)
Po
(мм)
O2
(г/м3)
Тmin Tmax R s Состояние
почвы
21 16.09.17 020 (С) 20000 м    4/0 верхняя 
[Ci fib]
+12 +7.6 74 +13  1022.2  0.5  758  291           
00 17.09.17 030 (СВ) 20000 м    4/0 верхняя 
[Ci fib]
+10.4 +6.4 76 +11  1023.1  0.8  758  293           
06 17.09.17 050 (СВ) 20000 м    ясно 
+16.5 +8.3 58 +17  1024.3  760  287           
09 17.09.17 050 (СВ) 20000 м    4/3 1000 м верхняя 
[Cu hum|Ci fib]
+23.1 +6.5 34 +23  1023.3  -0.8  759  281           
12 17.09.17 070 (В) 20000 м    4/3 1000 м верхняя 
[Cu hum|Ci fib]
+26.1 +4.2 24 +26  1021.7  -1.5  758  278           
18 17.09.17 050 (СВ) 20000 м    ясно 
+18 +6.2 46 +19  1020.4  -0.3  757  285           
21 17.09.17 060 (СВ) 20000 м    ясно 
+14.7 +6.5 58 +15  1019.8  -0.7  756  288           
00 18.09.17 020 (С) 20000 м    4/0 верхняя 
[Ci fib]
+12.4 +6.9 69 +14  1018.8  -1.1  755  290           
06 18.09.17 170 (Ю) 20000 м    8/0 верхняя 
[Ci]
+21.7 +8.9 44 +22  1017.7  755  280           
09 18.09.17 190 (Ю) 5{10}  20000 м    9/0 верхняя 
[Ci]
+29.4 +4.7 21 +29  1016.4  -1.1  754  274           
18 18.09.17 140 (ЮВ) 20000 м    6/0 верхняя 
[Ci fib]
+21 +5.6 37 +21  1013.5  -0.3  752  280           
21 18.09.17 150 (ЮВ) 20000 м    6/0 верхняя 
[Ci fib]
+19.1 +6.8 45 +20  1013.1  -0.5  751  282           
00 19.09.17 170 (Ю) 20000 м    ясно 
+18.9 +7 46 +19  1013.3  0.2  751  282           
03 19.09.17 170 (Ю) 20000 м    ясно 
+18 +9.2 56 +19  1013.9  0.5  752  283  +18        сухая 
06 19.09.17 200 (Ю) 20000 м    ясно 
+21.9 +11.2 51 +25  1015.3  1.5  753  279  +17.8         
09 19.09.17 260 (З) 20000 м    ясно 
+26.6 +11.1 38 +29  1015.4  0.3  753  275           
12 19.09.17 300 (СЗ) 20000 м    ясно 
+27.8 +10.3 34 +29  1015  -0.3  753  274           
15 19.09.17 360 (С) 20000 м    3/3 1000 м 
[Cu hum]
+24.5 +11.2 43 +27  1015.6  0.5  753  277    +28.1       
18 19.09.17 010 (С) 20000 м    4/0 верхняя 
[Ci fib]
+17.8 +10.1 61 +20  1017.2  1.3  754  284           
21 19.09.17 010 (С) 20000 м    4/0 верхняя 
[Ci fib]
+14.8 +6 56 +16  1018.3  0.9  755  288           
00 20.09.17 020 (С) 20000 м    ясно 
+14.4 +5.7 56 +15  1018.6  0.3  755  288           
03 20.09.17 020 (С) 20000 м    ясно 
+13 +6.1 63 +13  1018.7  755  290  +12.9        сухая 
06 20.09.17 040 (СВ) 20000 м    ясно 
+18 +7 49 +18  1019.5  756  285  +12.7         
09 20.09.17 030 (СВ) 20000 м    ясно 
+23.8 +7.8 36 +24  1018.8  -0.5  756  279           
12 20.09.17 030 (СВ) 20000 м    3/3 1000 м 
[Cu hum]
+26.7 +7.8 30 +27  1018  -0.7  755  276           
Время (UTC), дата Ветер
(°,м/с) 
Видим.   Явления Облачность Т
(°С)
Тd
(°С)
f(%) Тe
(°С)
Pmin
(гПа)
dP
(гПа)
Po
(мм)
O2
(г/м3)
Тmin Tmax R s Состояние
почвы

Для получения пояснительной информации подведите курсор к названию столбца.

ПОГОДА Новоанненский - архив

Всё, что Вы хотите узнать о погоде Новоанненский - удобно и подробно!

Выберите нужную дату (начиная с 1 января 2015* года) и нажмите кнопку "Найти".
Будут отображены архивные сводки погоды по пункту Новоанненский, начиная с указанной даты.


Отображать данные в формате CSV (для использования в таблицах Excel)


Внимание! Наш архив погоды предназначен исключительно для личного некоммерческого использования в познавательных целях. Если Вам необходимы официальные справки о состоянии погоды (для производственных, юридических, коммерческих и т.п. целей), обращайтесь в органы Росгидромета.

*Примечание: данная дата относится к архиву по метеостанциям СССР (Россия, СНГ, Балтия).
Архив по метеостанциям Зарубежной Европы и Азии (кроме Китая) хранится 10 дней, по другим регионам земного шара (Китай, Африка, Америка, Австралия, Океания) - 1 день.

Новоанненский - район местоположения метеостанции


Название, широта, долгота, высота метеостанции:
Новоанненский 50.5°ш. 42.7°д. 98 м над ур. моря [Российская Федерация]

Дополнительная информация

В oтличие oт бoльшинства пoгoдных сайтoв мы публикуем пoдрoбную метеoинфoрмацию в детальнoм прoфессиoнальнoм фoрмате.

Характеристики температуры и влажнoсти вoздуха измеряются на высoте 2 м в тени вдали oт зданий и деревьев.
Скoрoсть ветра измеряется на высoте 10 м (на урoвне рoста челoвека скoрoсть ветра ниже в 1.5-2 раза). Если метеoстанция нахoдится в гoрoде или в лесу, тo скoрoсть ветра занижена на 2-4 м/с пo сравнению с oткрытым местoм. Скoрoсть ветра над акватoриями крупных рек и oзёр, а также на вершинах хoлмoв на 2-5 м/с выше, чем в oбычных услoвиях.
Атмoсфернoе давление в разных тoчках местнoсти мoжет значительнo oтличаться oт давления на метеoстанции, в зависимoсти oт услoвий рельефа (при пoдъёме на 10 м давление пoнижается примернo на 1 мм рт.ст.).